GW3736 Weather Reports


time (UTC)temp
F
wind
direction
speed
knots
gust
knots
rain 1hr
in
rain 24hr
in
rain mn
in
humidity
%
barometer
mb
20260506070534 51 269 0.9 2.6 0.00 0.11 0.00 54 1004.2
20260506061534 51 260 0.9 1.7 0.00 0.11 0.00 58 1004.2
20260506060530 51 0.0 0.0 0.00 0.11 0.00 57 1004.2
20260506050606 52 238 0.9 3.5 0.00 0.14 0.00 54 1004.3
20260506044518 52 262 1.7 2.6 0.00 0.14 0.00 52 1004.1
20260506043534 52 267 1.7 2.6 0.00 0.14 0.00 51 1004.2
20260506042530 52 270 1.7 3.5 0.00 0.14 0.00 50 1004.1
20260506041526 52 271 1.7 5.2 0.00 0.14 0.00 49 1004.2
20260506040522 52 270 1.7 5.2 0.00 0.14 0.00 49 1004.3
20260506035537 52 268 2.6 5.2 0.00 0.14 0.14 50 1004.2
20260506034534 53 262 1.7 5.2 0.00 0.14 0.14 51 1004.4
20260506033610 53 265 1.7 5.2 0.00 0.14 0.14 51 1004.5
20260506032525 53 270 2.6 3.5 0.00 0.14 0.14 51 1004.3
20260506031522 53 258 1.7 3.5 0.00 0.14 0.14 51 1004.3
20260506030518 53 263 2.6 5.2 0.00 0.14 0.14 52 1004.4
20260506025534 53 263 2.6 5.2 0.00 0.14 0.14 52 1004.4
20260506024529 53 263 2.6 6.1 0.00 0.14 0.14 52 1004.3
20260506023525 53 263 1.7 3.5 0.00 0.14 0.14 54 1004.3
20260506022521 53 250 1.7 5.2 0.00 0.14 0.14 56 1004.4
20260506021658 53 253 1.7 3.5 0.00 0.15 0.14 57 1004.2
20260506020533 53 260 1.7 3.5 0.00 0.16 0.14 56 1004.2
20260506015550 53 253 0.9 2.6 0.00 0.16 0.14 58 1004.0
20260506014525 54 258 0.9 1.7 0.00 0.19 0.14 58 1003.9
20260506013521 54 255 1.7 5.2 0.00 0.19 0.14 59 1003.9
20260506012517 54 258 1.7 3.5 0.00 0.20 0.14 58 1003.8
20260506011533 54 262 2.6 5.2 0.00 0.22 0.14 58 1003.8
20260506010528 54 260 2.6 5.2 0.00 0.22 0.14 60 1003.9
20260506005525 54 261 2.6 7.0 0.00 0.22 0.14 60 1003.8
20260506004520 54 254 2.6 6.1 0.00 0.22 0.14 64 1003.8
20260506003516 55 267 1.7 5.2 0.00 0.22 0.14 65 1003.9
20260506002533 55 269 0.9 2.6 0.00 0.22 0.14 66 1003.6
20260506001548 55 261 1.7 3.5 0.00 0.22 0.14 66 1003.4
20260506000545 55 248 0.9 1.7 0.00 0.23 0.14 67 1003.2
20260505235541 55 259 1.7 3.5 0.00 0.23 0.14 66 1003.2
20260505234516 55 258 1.7 3.5 0.00 0.23 0.14 66 1003.0
20260505233533 55 256 0.9 1.7 0.00 0.23 0.14 66 1003.0
20260505232529 55 262 1.7 3.5 0.00 0.23 0.14 66 1002.9
20260505231525 56 263 1.7 5.2 0.00 0.23 0.14 66 1003.0
20260505230541 56 259 0.9 2.6 0.00 0.23 0.14 65 1003.0
20260505225516 56 264 2.6 3.5 0.00 0.23 0.14 64 1003.1
20260505224553 56 264 1.7 3.5 0.00 0.23 0.14 64 1003.3
20260505223529 56 269 3.5 7.0 0.00 0.23 0.14 65 1003.2
20260505222525 56 259 2.6 5.2 0.00 0.23 0.14 66 1003.3
20260505221521 56 252 2.6 6.1 0.00 0.23 0.14 65 1003.3
20260505220517 56 272 3.5 7.0 0.00 0.23 0.14 66 1003.4
20260505215533 56 260 2.6 7.0 0.00 0.23 0.14 65 1003.4
20260505214549 56 264 4.3 7.8 0.00 0.23 0.14 64 1003.2
20260505213544 56 274 5.2 8.7 0.00 0.23 0.14 64 1003.2
20260505212520 56 269 4.3 8.7 0.00 0.23 0.14 64 1003.1
20260505211516 56 247 2.6 7.8 0.00 0.23 0.14 66 1003.1
20260505210532 56 248 3.5 8.7 0.00 0.23 0.14 67 1003.2
20260505205528 56 245 2.6 6.1 0.00 0.23 0.14 67 1003.3
20260505204524 56 251 3.5 7.0 0.00 0.23 0.14 68 1003.2
20260505203519 56 246 3.5 7.8 0.00 0.23 0.14 69 1003.4
20260505202516 55 248 4.3 7.0 0.00 0.23 0.14 70 1003.3
20260505201532 55 251 1.7 6.1 0.00 0.23 0.14 71 1003.3
20260505200527 54 252 1.7 3.5 0.00 0.23 0.14 71 1003.2
20260505195523 54 250 2.6 5.2 0.00 0.23 0.14 72 1003.4
20260505194519 54 256 2.6 6.1 0.00 0.23 0.14 72 1003.6
20260505193516 54 252 3.5 7.0 0.00 0.23 0.14 72 1003.6
20260505192551 54 249 3.5 7.8 0.00 0.23 0.14 72 1003.8
20260505191527 54 238 2.6 7.8 0.00 0.23 0.14 73 1003.8
20260505190523 53 249 3.5 6.1 0.00 0.23 0.14 74 1003.6
20260505185519 53 239 3.5 8.7 0.00 0.23 0.14 76 1003.5
20260505184535 53 237 2.6 6.1 0.00 0.23 0.14 77 1003.3
20260505183531 53 232 1.7 3.5 0.01 0.23 0.14 77 1003.2
20260505182547 53 231 2.6 5.2 0.02 0.23 0.14 78 1003.1
20260505181523 53 196 1.7 3.5 0.03 0.23 0.14 77 1003.2
20260505180519 52 190 0.9 2.6 0.05 0.23 0.14 77 1003.2
20260505175535 52 141 1.7 2.6 0.06 0.23 0.14 76 1003.0
20260505174531 52 140 1.7 2.6 0.08 0.23 0.14 76 1003.0
20260505173527 52 219 0.9 1.7 0.09 0.22 0.13 75 1003.3
20260505172523 52 91 0.0 1.7 0.09 0.21 0.13 74 1003.2
20260505171539 52 84 0.9 1.7 0.08 0.20 0.11 73 1003.2
20260505170535 52 72 0.0 1.7 0.06 0.18 0.09 72 1003.5
20260505165531 53 66 0.0 0.9 0.04 0.17 0.08 71 1003.1
20260505164526 54 83 0.9 1.7 0.03 0.15 0.06 69 1003.1
20260505163522 54 82 0.0 1.7 0.01 0.13 0.04 67 1003.1
20260505162518 55 72 0.9 2.6 0.00 0.12 0.04 66 1002.9
20260505161615 55 73 0.9 2.6 0.00 0.12 0.04 67 1002.4
20260505160610 56 71 1.7 3.5 0.00 0.12 0.04 65 1002.6
20260505152535 56 77 2.6 6.1 0.00 0.12 0.04 63 1001.8
20260505151551 57 54 0.9 2.6 0.00 0.12 0.04 64 1001.9
20260505150527 56 55 0.9 5.2 0.00 0.12 0.04 63 1002.0
20260505140523 54 28 2.6 5.2 0.00 0.12 0.04 66 1000.9
20260505124531 60 243 3.5 9.6 0.00 0.12 0.04 72 999.2
20260505123527 60 266 5.2 11.3 0.00 0.12 0.04 73 999.8
20260505122523 59 260 2.6 5.2 0.00 0.12 0.04 74 999.5
20260505121519 59 258 3.5 7.8 0.00 0.12 0.04 74 999.6
20260505120535 59 238 2.6 6.1 0.00 0.12 0.04 74 999.3
20260505115551 59 259 4.3 7.8 0.00 0.12 0.04 75 999.4
20260505114527 59 251 3.5 7.0 0.00 0.12 0.04 75 999.2
20260505113603 59 269 3.5 7.8 0.00 0.12 0.04 75 998.9
20260505112539 58 270 5.2 12.2 0.00 0.12 0.04 75 998.5
20260505111615 58 264 3.5 8.7 0.00 0.12 0.04 75 998.3
20260505110531 58 264 5.2 9.6 0.00 0.12 0.04 76 998.2
20260505101550 59 258 4.3 8.7 0.00 0.12 0.04 76 997.2
20260505100527 59 250 5.2 12.2 0.00 0.12 0.04 76 997.1
20260505095522 59 246 6.1 13.0 0.00 0.12 0.04 76 997.0
20260505094519 59 258 7.0 14.8 0.00 0.12 0.04 76 996.9
20260505093555 59 257 7.0 13.0 0.00 0.12 0.04 77 996.7
20260505092530 59 256 7.0 13.0 0.00 0.12 0.04 77 996.8
20260505091527 59 245 6.1 11.3 0.00 0.12 0.04 77 996.6
20260505090522 59 261 6.1 13.9 0.00 0.12 0.04 77 996.7
20260505085519 59 250 5.2 14.8 0.00 0.12 0.04 77 996.8
20260505084534 59 247 4.3 9.6 0.00 0.12 0.04 77 996.6
20260505083551 59 255 6.1 12.2 0.00 0.12 0.04 77 996.5
20260505082526 59 239 5.2 11.3 0.00 0.12 0.04 77 996.4
20260505081522 59 257 5.2 11.3 0.00 0.12 0.04 77 996.3
20260505080538 60 252 5.2 12.2 0.00 0.12 0.04 76 996.1
20260505075534 60 250 5.2 9.6 0.00 0.12 0.04 76 995.8
20260505074530 60 253 5.2 9.6 0.00 0.12 0.04 76 995.3
20260505073546 60 244 3.5 7.8 0.00 0.12 0.04 76 994.9
20260505072542 60 254 4.3 8.7 0.00 0.12 0.04 76 995.3
20260505071518 60 256 4.3 11.3 0.00 0.12 0.04 76 995.4